Tracking 28920 objects as of 24-May-2024
HD Live streaming from Space Station
objects crossing your sky now

ZHUHAI-1 03C

Track ZHUHAI-1 03C now!
10-day predictions


NORAD ID: 44537
Int'l Code: 2019-060D
Perigee: 402.0 km
Apogee: 414.6 km
Inclination: 97.5 °
Period: 92.6 minutes
Semi major axis: 6779 km
RCS: Unknown
Launch date: September 19, 2019
Source: People's Republic of China (PRC)
Launch site: Jiuquan Satellite Launch Center, China (JSC)
Your satellite tracking list
Your tracking list is empty




NASA's NSSDC Master Catalog

Two Line Element Set (TLE):
1 44537U 19060D   24145.49772360  .00087295  00000-0  12737-2 0  9996
2 44537  97.4937 274.0546 0009287 104.9364 255.2919 15.55332540260582
Source of the keplerian elements: AFSPC